Tracking 35334 objects as of 12-Sep-2026
HD Live streaming from Space Station
objects crossing your sky now

SL-4 R/B


SL-4 R/B is no longer on orbit


NORAD ID: 12896
Int'l Code: 1981-101B
Launch date: October 9, 1981
Source: Commonwealth of Independent States (former USSR) (CIS)
Launch site: PLESETSK MISSILE AND SPACE COMPLEX (PKMTR)
Decay date: 1981-10-11

Note: This is a ROCKET BODY
Your satellite tracking list
Your tracking list is empty




NASA's NSSDC Master Catalog

Two Line Element Set (TLE):
1 12896U 81101  B 81284.89402277  .44033933 -10729-4 +19999-3 0  9992
2 12896 082.3336 201.6080 0011853 284.1232 076.0484 16.56465662000398
Source of the keplerian elements: AFSPC